Theta_e
296 290 288 291 292 293 291 289 288 291 294 292 291 291 293 294 292 291 291 292 292 292 292 295 297 297 298 300 303 304 303 303 303 301 298 296 293 293 292 292 292 293 294 294
292 289 295 297 296 294 292 290 289 292 294 292 291 291 293 293 294 294 294 293 292 290 291 294 295 296 298 299 303 304 305 304 304 301 297 294 291 290 289 290 290 290 290 291
291 295 299 296 294 292 291 290 289 290 291 290 288 288 290 294 295 294 295 295 293 291 290 292 294 295 297 300 303 304 305 300 297 295 293 291 290 288 287 287 287 288 289 289
293 297 295 293 292 293 289 293 293 292 288 283 288 283 288 291 292 292 294 293 291 290 291 293 294 294 297 299 300 300 299 296 295 295 292 290 288 285 284 285 286 287 287 287
292 292 292 292 293 295 290 292 291 290 286 284 284 282 286 292 292 291 293 290 290 290 291 292 293 295 296 296 296 296 297 296 295 294 290 288 286 286 286 285 285 285 285 285
292 294 294 294 293 295 294 292 290 287 286 280 285 285 286 289 293 294 294 290 289 290 291 291 291 290 293 292 292 292 292 289 289 289 288 287 286 285 285 284 283 283 283 283
290 290 293 294 291 293 293 289 282 279 278 280 285 284 290 292 292 294 293 291 289 290 290 289 288 288 289 289 287 287 288 287 288 288 288 287 287 286 285 284 283 282 282 281
286 283 291 293 292 290 289 288 281 275 277 279 283 280 287 292 291 292 293 292 290 289 289 288 287 287 287 287 286 285 286 286 286 287 287 287 287 286 285 284 283 282 282 281
286 286 292 292 294 295 287 286 292 286 274 275 283 286 291 289 289 289 290 290 288 288 287 286 286 286 286 285 285 286 285 285 286 286 287 286 286 285 284 283 282 282 281 282
293 286 289 289 293 291 290 292 284 283 273 274 280 282 286 286 289 288 287 288 288 288 287 286 285 286 285 285 284 285 286 285 286 286 286 285 284 283 283 282 281 280 281 281
293 292 284 287 287 288 287 286 287 288 283 277 275 284 289 292 292 289 288 290 289 288 286 286 286 285 285 284 284 284 284 284 284 285 284 284 283 283 282 281 280 280 280 279
295 292 280 284 289 289 289 289 288 285 281 281 281 286 289 289 291 291 290 290 290 289 287 286 286 285 284 284 284 283 284 284 284 284 284 283 283 282 281 280 279 279 279 279
295 289 280 282 285 287 286 289 292 291 284 283 283 285 288 289 288 288 288 289 290 289 287 286 286 285 285 284 283 283 284 284 284 284 283 282 282 281 280 279 279 278 278 277
298 290 287 285 286 287 283 286 288 289 284 284 287 290 290 286 288 288 288 288 289 288 287 287 286 285 285 284 283 283 284 284 284 284 283 282 281 281 280 279 278 278 277 276
296 287 290 290 290 289 284 284 288 286 289 286 289 289 293 294 289 290 290 288 288 288 287 287 286 286 284 284 284 284 284 284 284 283 282 282 281 281 280 279 278 278 277 276
294 287 288 287 288 288 287 290 286 287 289 290 290 289 294 295 295 290 290 289 289 289 288 288 287 286 284 284 284 284 284 284 284 283 282 282 282 281 281 280 278 277 276 275
289 286 285 284 286 287 283 288 289 292 291 289 286 291 291 292 293 290 290 291 290 290 290 289 288 287 286 285 285 284 284 284 283 283 283 282 282 281 280 279 278 276 275 274
287 285 286 285 285 278 287 287 292 291 293 294 292 294 294 293 295 296 294 292 291 291 291 290 289 288 286 286 285 285 284 283 283 283 282 282 281 281 280 278 277 276 275 274
290 287 285 282 283 285 287 283 286 286 288 293 293 294 296 292 286 289 290 292 293 292 293 292 291 289 287 285 285 283 282 283 282 282 282 282 282 281 279 278 276 276 274 273
285 287 285 283 279 278 281 281 283 288 284 286 292 293 293 286 285 293 287 289 289 291 291 289 289 288 287 285 284 283 282 282 282 282 282 282 283 281 279 279 276 274 274 274
278 280 280 281 281 283 283 280 282 280 281 275 279 281 284 287 290 287 287 287 289 290 289 289 289 288 287 285 284 283 282 281 283 283 282 281 281 281 280 278 275 274 273 272
280 280 279 282 280 278 282 280 283 283 281 279 281 281 283 282 282 284 286 287 287 287 287 287 287 286 285 285 285 283 281 282 280 280 279 279 279 279 277 276 273 272 271 270
279 284 282 283 283 281 281 282 283 283 282 282 282 283 281 281 280 281 281 281 282 282 282 281 283 281 280 281 282 281 280 278 278 278 279 279 278 276 275 274 271 269 269 269
281 281 282 282 282 280 281 284 284 282 280 281 281 282 281 279 279 279 278 279 279 279 279 277 279 278 278 276 278 278 278 278 278 278 274 271 273 270 270 272 271 271 268 268
278 281 280 280 279 280 282 282 285 284 281 280 280 281 280 279 278 279 277 277 279 278 277 277 278 278 278 276 274 271 274 274 273 270 269 270 270 269 268 268 268 269 266 269
279 280 280 279 282 283 283 284 284 284 282 280 280 279 279 280 279 278 277 277 277 276 275 275 274 274 271 271 270 268 270 272 272 270 269 269 268 266 266 266 263 273 273 274
Wind_Speed
3 4 9 13 10 6 3 3 4 5 4 5 10 10 11 12 8 10 10 11 11 10 8 7 7 7 7 6 8 10 11 9 8 8 7 6 6 7 8 7 10 10 9 9
3 9 12 6 8 8 8 8 11 6 5 6 7 13 9 8 14 15 19 16 13 9 9 8 8 7 7 8 8 10 10 11 6 6 6 5 6 6 7 7 9 8 9 8
9 8 7 10 5 6 7 8 6 9 1 4 4 9 9 9 12 9 13 11 11 18 14 10 9 8 7 8 10 9 8 9 9 12 11 10 9 6 6 6 7 7 9 9
10 8 4 5 7 9 10 7 6 5 1 7 4 11 7 7 10 10 16 15 15 14 10 12 11 9 9 8 6 9 10 11 11 14 12 12 8 10 2 4 5 7 8 9
10 8 8 12 10 9 7 2 3 3 3 2 2 6 6 9 11 12 16 11 14 15 17 16 13 10 9 8 7 8 9 9 12 12 9 10 11 9 7 6 10 9 8 8
6 2 6 8 3 7 8 6 7 5 3 6 10 10 7 10 18 10 9 9 14 15 15 13 10 9 9 5 7 7 9 6 8 11 11 13 16 13 10 8 8 7 6 5
1 5 3 5 5 2 5 7 2 4 1 10 5 10 20 7 7 11 14 16 16 17 17 16 16 13 12 11 8 7 9 7 9 12 12 13 13 13 13 11 9 10 6 4
11 6 15 8 10 9 9 10 8 9 6 5 2 11 9 9 4 8 9 18 18 18 17 17 17 14 13 12 11 9 9 9 10 13 13 10 11 8 8 8 8 7 7 6
8 8 3 1 5 13 6 9 5 2 2 2 7 9 8 4 8 4 8 14 18 19 18 19 15 14 13 12 11 12 11 10 11 12 11 11 9 10 9 9 7 7 7 6
5 4 3 1 5 3 7 6 3 1 3 7 6 9 13 6 13 8 8 14 14 14 15 15 15 13 10 10 8 9 10 12 11 12 11 10 9 9 9 9 9 8 7 8
5 3 1 2 7 15 6 5 4 5 6 6 4 12 6 10 13 12 13 16 17 17 17 15 14 13 13 10 11 11 10 11 12 11 9 11 10 10 8 8 7 8 8 8
13 3 5 10 5 3 2 8 7 7 8 5 3 23 5 3 4 10 12 14 15 18 17 15 15 14 15 15 13 13 12 13 12 12 12 11 11 10 9 8 7 7 9 7
10 5 1 6 4 3 7 9 20 7 4 13 8 20 3 6 1 4 9 11 13 16 16 15 15 15 15 15 14 14 13 13 12 12 13 12 12 11 10 9 8 8 9 7
10 6 11 17 4 7 8 10 12 16 11 7 28 29 11 3 4 5 8 10 13 16 17 16 15 17 16 15 15 15 13 12 13 12 12 13 12 11 11 10 9 9 8 8
11 10 13 20 7 5 3 8 20 23 32 15 29 24 24 13 12 11 9 8 11 15 18 20 19 17 16 16 15 13 13 14 14 14 13 13 11 10 10 10 9 9 8 7
3 5 7 19 9 8 12 11 16 21 24 25 25 32 10 8 8 8 13 17 19 19 20 20 19 18 19 19 17 16 15 14 14 14 14 13 13 12 12 10 10 9 8 8
7 5 6 14 7 9 11 34 26 23 21 19 25 37 4 12 13 10 11 15 19 19 21 22 22 20 18 20 19 18 16 14 15 14 13 13 13 12 12 11 11 10 10 7
8 10 5 9 7 12 13 0 14 23 29 27 28 33 17 18 16 17 16 18 19 20 19 18 16 16 15 15 14 13 13 14 15 13 13 13 14 13 11 12 12 10 8 10
9 9 6 6 10 6 10 6 9 11 20 21 25 29 28 12 2 12 8 12 17 16 15 15 15 12 14 16 15 15 14 14 14 13 14 14 14 14 13 14 12 9 8 7
2 8 7 4 5 8 4 2 3 6 13 7 16 23 19 7 8 19 5 9 9 11 11 12 11 11 14 13 14 15 15 16 17 16 15 13 14 14 15 13 12 7 7 9
4 3 12 12 7 5 5 4 3 6 8 2 1 4 6 9 8 2 7 4 6 10 11 11 12 13 13 14 16 15 13 16 15 11 12 12 12 14 13 11 7 9 9 6
12 10 6 5 6 8 6 3 8 2 3 2 2 2 4 1 2 3 3 6 8 9 9 9 10 10 11 14 15 14 16 9 8 10 10 10 11 9 8 11 7 6 8 7
5 7 8 9 6 2 4 3 1 0 1 4 3 3 2 4 2 3 2 5 5 6 7 5 10 10 6 6 8 10 6 8 9 9 10 10 8 8 8 10 9 6 7 7
3 0 2 4 6 4 3 2 3 2 0 3 3 2 4 3 3 2 3 5 5 4 6 4 10 9 6 3 3 3 7 7 9 9 7 6 8 7 6 5 6 7 8 7
4 5 5 5 4 4 7 6 4 4 2 1 1 1 3 6 2 4 4 3 5 4 3 4 7 7 7 6 4 3 6 7 6 6 5 6 4 7 5 3 5 6 2 7
5 7 6 6 6 4 3 5 7 5 3 3 3 3 3 3 5 4 4 4 4 5 3 4 4 5 3 5 4 3 4 7 8 6 5 5 5 4 4 4 1 10 10 14
Wind_Direction
218 123 203 206 193 196 208 226 250 260 230 152 224 242 224 211 218 216 214 207 195 183 165 153 147 152 153 156 139 139 137 134 128 127 116 92 87 84 73 66 63 68 72 71
83 228 227 197 204 216 240 253 266 291 204 169 259 253 244 199 222 210 210 206 191 152 161 161 156 169 183 158 151 150 148 144 140 120 108 106 110 86 87 82 71 66 68 73
181 212 205 198 213 187 213 208 236 229 244 265 307 269 254 241 223 214 225 206 186 170 166 165 167 175 167 156 157 157 154 130 114 112 110 108 102 91 88 72 79 64 77 77
232 222 170 166 211 189 239 209 212 237 221 250 154 285 242 246 232 220 219 195 181 171 162 161 167 173 169 159 143 132 131 131 131 135 134 136 133 127 112 116 101 87 76 82
230 185 190 216 209 173 232 82 197 219 211 313 226 295 248 207 240 242 226 190 178 170 164 168 171 168 155 148 139 129 132 138 142 139 127 123 116 115 122 111 107 97 82 77
218 173 159 196 70 168 148 71 39 40 59 262 210 213 199 214 229 245 203 184 171 166 166 162 151 147 146 143 139 140 135 131 132 130 131 134 136 138 134 130 120 110 96 90
149 205 172 136 107 54 131 119 285 326 301 244 216 226 251 296 226 216 197 187 175 169 165 159 160 164 157 163 154 144 140 143 135 132 133 138 140 140 142 143 134 128 122 109
190 269 170 191 181 171 195 165 162 212 214 272 345 241 252 231 258 266 203 185 172 169 167 165 167 167 165 165 162 152 151 146 142 135 136 137 139 145 144 139 136 127 126 127
175 258 85 91 154 156 202 211 166 352 87 12 219 279 288 254 257 262 183 171 177 175 169 169 165 168 168 167 166 160 154 149 145 139 137 139 140 141 132 122 122 136 131 127
224 263 23 197 89 58 150 165 108 96 197 251 272 259 236 212 244 223 199 184 180 173 172 168 167 169 169 168 160 152 158 154 145 136 137 137 135 125 124 131 139 142 137 126
178 174 313 130 200 173 163 192 190 140 164 189 282 261 220 220 219 206 197 191 181 179 175 172 171 169 168 160 160 163 158 152 147 142 134 136 135 129 127 140 149 147 129 118
200 160 182 204 267 276 271 189 164 171 215 236 172 265 180 138 225 188 198 193 185 181 175 173 173 169 170 171 168 169 166 162 160 151 144 143 139 139 144 148 151 139 124 121
175 190 101 324 346 342 208 207 210 225 63 208 194 257 30 61 92 208 188 185 181 177 174 172 172 179 178 176 175 174 173 167 157 152 150 146 149 152 155 156 152 137 127 127
155 159 205 225 172 144 190 196 205 206 229 188 231 264 223 169 225 212 206 190 183 181 178 179 181 183 182 181 178 177 171 167 163 155 154 158 161 162 163 159 151 141 140 145
160 215 218 245 220 111 197 212 210 207 226 202 254 236 251 233 221 220 204 157 182 189 188 188 186 185 180 180 181 177 174 172 167 163 165 170 162 160 161 159 154 150 150 156
341 221 177 254 235 240 246 247 227 232 242 239 254 263 101 229 237 214 189 184 192 197 199 195 189 187 187 182 181 178 177 175 169 174 176 169 166 167 169 164 160 157 155 158
169 174 169 247 159 231 247 231 238 232 233 229 236 248 162 253 240 226 210 201 203 201 197 194 194 190 186 187 180 182 177 167 174 178 175 174 170 170 174 166 164 170 170 164
171 194 211 255 149 217 241 140 216 220 232 228 246 257 238 247 248 247 219 202 201 200 194 194 189 188 182 175 173 161 164 175 178 179 176 175 173 175 170 170 180 172 171 175
162 183 220 220 225 292 292 198 156 164 247 223 229 248 253 247 260 258 215 208 205 197 191 186 176 164 155 165 172 164 164 171 174 185 185 180 176 174 173 184 181 179 173 177
68 214 204 176 214 211 266 275 240 108 267 204 204 237 250 127 223 256 176 155 153 145 145 141 147 139 152 162 156 160 174 177 189 189 186 178 180 180 184 184 181 175 180 192
139 192 221 237 247 256 235 205 303 140 247 302 254 293 153 204 239 271 146 111 127 136 139 131 149 158 166 155 163 176 176 194 190 171 175 178 179 180 184 177 172 177 180 167
172 177 199 212 232 247 162 86 176 230 328 208 308 277 206 293 21 136 119 132 139 136 129 143 142 154 157 162 162 172 188 180 144 148 158 168 174 178 170 172 169 165 168 178
217 195 177 192 208 185 221 179 187 194 274 334 333 332 189 146 143 119 104 110 115 123 121 99 124 111 81 118 146 159 174 143 144 152 172 177 168 168 165 167 167 158 174 186
239 66 164 127 209 216 223 240 179 161 202 301 292 275 156 120 112 75 114 125 111 88 105 97 112 113 125 119 121 132 141 139 151 165 160 144 160 154 152 157 170 178 185 192
199 147 158 284 262 310 243 217 211 163 135 118 57 97 149 134 150 147 135 112 110 94 74 109 126 142 166 157 146 145 143 140 141 129 141 154 149 163 152 158 175 187 195 187
198 174 181 219 192 155 256 228 170 179 152 136 88 52 36 138 146 124 99 108 116 118 97 99 99 107 113 118 138 155 143 147 145 145 155 163 155 151 148 151 153 221 211 215